User: anonymous   Login
Location: Vancouver
(49.2500°N, 123.1330°W)
Time: 12:12:45
(UTC-07:00)
Language:

Cosmos 676 Rocket - Orbit

View from above orbital plane
View from above orbital plane
View from above satellite
View from above satellite

Ground track
Ground track

The orbit data is extracted from the following two-line orbital elements,

1 07434U 74071B   14295.27307692  .00000430  00000-0  15567-3 0  3453
2 07434 074.0485 193.0551 0021345 340.0916 153.8839 14.36304200 97589
Epoch (UTC): 22 October 2014 06:33:13
Eccentricity: 0.0021345
inclination: 74.0485°
perigee height: 755 km
apogee height: 786 km
right ascension of ascending node: 193.0551°
argument of perigee: 340.0916°
revolutions per day: 14.36304200
mean anomaly at epoch: 153.8839°
orbit number at epoch: 9758

The dashed part of the orbit path shows where the satellite is in the earth's shadow,  

DLR